Hourly Weather Roundup
Issued by NWS Central Illinois

Home | Current Version | Previous Version | Text Only | Print | Product List | Glossary On
Versions: 1 2 3 4 5 6 7 8 9 10 11 12 13 14 15 16 17 18 19 20 21 22 23 24 25 26 27 28 29 30 31 32 33 34 35 36 37 38 39 40 41 42 43 44 45 46 47 48 49 50
000
NZUS43 KILX 231910
HWRILX

AREA WEATHER ROUNDUP
NATIONAL WEATHER SERVICE, LINCOLN IL
200 PM CDT MON MAY 23 2016


CITY           SKY/WX    TMP DP  RH WIND       PRES   REMARKS
BLOOMINGTON    SUNNY     83  49  30 SE6       29.99F HX  81
CHAMPAIGN      SUNNY     82  41  23 S13       29.99F HX  80
DANVILLE       SUNNY     80  36  20 SE7G17    29.98S
DECATUR        SUNNY     83  50  31 SE5       29.98F HX  81
EFFINGHAM      SUNNY     81  54  39 SE5       30.01S HX  80
FLORA          SUNNY     83  54  36 S6        29.99F HX  82
GALESBURG      CLOUDY    83  48  29 S10G16    29.94F HX  81
JACKSONVILLE   SUNNY     83  45  25 S12G20    29.95F HX  81
LACON          SUNNY     82  50  32 W6        29.95F HX  81
LAWRENCEVILLE  SUNNY     79  43  27 E7        30.00F
LITCHFIELD     SUNNY     81  45  27 S9        29.98F HX  80
$$


CITY           SKY/WX    TMP DP  RH WIND       PRES   REMARKS
LINCOLN        SUNNY     84  47  27 S5        29.96F HX  82
MACOMB         SUNNY     84  43  23 S13       29.96F HX  82
MATTOON        SUNNY     78  46  32 SE9       29.99F
MT CARMEL AP   SUNNY     80  45  29 E5        30.00S
OLNEY-NOBLE AP SUNNY     79  50  36 S5        30.00F
PARIS          SUNNY     79  46  30 E6        30.01F
PEORIA         SUNNY     83  47  28 S12       29.95F HX  81
PONTIAC        SUNNY     83  46  27 CALM      29.98S HX  81
RANTOUL        SUNNY     84  41  22 SE8       29.99S HX  81
ROBINSON       SUNNY     78  49  35 SE6       30.01F
SPRINGFIELD    SUNNY     85  47  26 S10       29.97F HX  82
TAYLORVILLE    SUNNY     82  48  30 SE10      29.97F HX  80
$$

...REGIONAL REPORTS...


CITY           SKY/WX    TMP DP  RH WIND       PRES   REMARKS
CHICAGO O`HARE MOSUNNY   79  44  28 S5        29.98F
KANKAKEE       SUNNY    N/A N/A N/A SE5       29.99F
MOLINE         CLOUDY    84  47  27 S15       29.91F HX  82
MOUNT STERLING MOSUNNY   82  49  32 SE14      29.94F HX  80
MOUNT VERNON   SUNNY     82  54  36 CALM      30.00F HX  81
PITTSFIELD     SUNNY     82  52  34 S14G22    29.95F HX  81
QUINCY         SUNNY     82  48  30 S14G24    29.94F HX  81
ROCKFORD       PTSUNNY   84  47  27 SE8G23    29.97F HX  82
$$


CITY           SKY/WX    TMP DP  RH WIND       PRES   REMARKS
BURLINGTON     SUNNY     83  50  31 S16G24    29.92F HX  81
CEDAR RAPIDS   SUNNY     83  50  31 S22G28    29.89F HX  81
DES MOINES     CLOUDY    78  59  51 S21G29    29.86F
KIRKSVILLE     MOSUNNY   79  55  43 S12       29.94S
OTTUMWA        MOSUNNY   80  55  42 S18G25    29.89F HX  80
ST LOUIS       PTSUNNY   83  50  31 S10G18    29.97F HX  81
$$


CITY           SKY/WX    TMP DP  RH WIND       PRES   REMARKS
TERRE HAUTE    SUNNY     78  44  29 E8        30.00F
EVANSVILLE     SUNNY     78  48  34 VRB6      30.01S
INDIANAPOLIS   SUNNY     76  42  29 SE9       30.01F
LAFAYETTE      SUNNY     77  45  32 SE8       30.00F
MADISON        PTSUNNY   81  45  28 S15G21    29.93F HX  80
MILWAUKEE      MOSUNNY   74  45  35 SE17      29.98F
$$






USA.gov is the U.S. government's official web portal to all federal, state and local government web resources and services.